www.pogodaiklimat.ru

ПОГОДА в Колдуотере, MI

  • Прогноз погоды в Колдуотере
  • Монитор погоды в Колдуотере
  • Климат в Колдуотере

АРХИВ ПОГОДЫ в Колдуотере

Время (UTC), дата Ветер
(напр.,м/с)
 
Видим.   Явления Облачность Т
(С)
Тd
(С)
f
(%)
Тe
(С)
Тes
(С)
Комфортность

P
(гПа)

Po
(гПа)
Тmin
(С)
Tmax
(С)
R
(мм)
SD
(см)
03:15 16.06   5 км  дымка  10/10 480 м  +18.0  +18.0  100  +18  +18      975.2         
03:19 16.06   5 км  дымка  10/10 480 м  +18.0  +18.0  100  +18  +18      975.2         
03:38 16.06   6 км  дымка  10/10 420 м  +18.0  +18.0  100  +18  +18      975.2         
03:56 16.06 ЮВ  6 км  дымка  10/10 420 м  +18.1  +18.1  100  +19  +19      974.9         
04:15 16.06 ЮВ  8 км  дымка  10/10 480 м  +18.0  +18.0  100  +18  +18      974.6         
04:35 16.06   8 км  дымка  10/10 540 м  +17.8  +17.8  100  +18  +18      974.6         
04:36 16.06   8 км  дымка  10/10 540 м  +17.8  +17.8  100  +18  +18      974.2         
04:59 16.06   11 км    10/10 420 м  +17.9  +17.9  100  +18  +18      974.9         
05:17 16.06 ЮВ  8 км  дымка  10/10 480 м  +17.8  +17.8  100  +19  +19      974.2         
05:35 16.06   8 км  дымка  10/10 480 м  +17.8  +17.8  100  +18  +18      974.6         
05:36 16.06   8 км  дымка  10/10 480 м  +17.8  +17.8  100  +18  +18      974.6         
05:55 16.06   6 км  дымка  10/10 480 м  +17.8  +17.8  100  +18  +18      974.2         
06:15 16.06   6 км  дымка  10/10 480 м  +17.8  +17.8  100  +18  +18      974.2         
06:38 16.06   5 км  дымка  10/10 540 м  +17.7  +17.7  100  +18  +18      974.2         
06:56 16.06   4 км  дымка  10/10 60 м  +17.7  +17.7  100  +18  +18      973.9         
07:15 16.06 В  4 км  слабый дождь  10/10 60 м  +17.8  +17.8  100  +19  +19      973.3         
07:35 16.06 В  4 км  дымка  10/10 60 м  +17.7  +17.7  100  +18  +18      972.9         
07:59 16.06   4 км  дымка  8/8 60 м  +17.5  +17.5  100  +17  +17      973.3         
08:17 16.06   3 км  слабый дождь  10/10 60 м  +17.6  +17.6  100  +18  +18      973.3         
08:35 16.06 В  4 км  слабый дождь  10/10 60 м  +17.6  +17.6  100  +17  +17      972.6         
08:55 16.06 В  6 км  дождь  10/10 60 м  +17.6  +17.6  100  +18  +18      972.6         
09:15 16.06 В  5 км  слабая морось  10/10 120 м  +17.6  +17.6  100  +18  +18      973.3         
09:20 16.06 В  5 км  дымка  10/10 120 м  +17.6  +17.6  100  +18  +18      973.3         
09:38 16.06 В  5 км  слабая морось  10/10 120 м  +17.7  +17.7  100  +18  +18      973.9         
09:56 16.06   5 км  дымка  10/10 120 м  +17.8  +17.8  100  +18  +18      974.2         
10:15 16.06 В  5 км  слабый дождь  10/10 120 м  +17.8  +17.8  100  +19  +19      974.2         
10:35 16.06   5 км  морось  10/10 120 м  +17.8  +17.8  100  +18  +18      974.2         
10:59 16.06   5 км  слабый дождь  10/10 120 м  +17.8  +17.8  100  +18  +18      974.6         
11:17 16.06   4 км  слабый дождь  10/10 120 м  +18.0  +18.0  100  +18  +18      974.6         
11:35 16.06 СВ  5 км  морось  10/10 120 м  +17.8  +17.8  100  +18  +18      974.6         
11:55 16.06 В  8 км  слабый дождь  10/10 120 м  +16.7  +16.7  100  +16  +16      974.6         
11:56 16.06 В  8 км  слабый дождь  10/10 120 м  +16.8  +16.8  100  +16  +16      974.6         
12:15 16.06 В  11 км    10/10 120 м  +16.6  +16.6  100  +16  +16      974.6         
12:20 16.06 СВ  11 км    10/10 120 м  +16.6  +16.6  100  +16  +16      974.6         
12:38 16.06 СВ  8 км  дымка  10/10 120 м  +16.4  +16.4  100  +16  +16      974.6         
12:56 16.06 СВ  11 км    10/10 120 м  +16.3  +16.3  100  +15  +15      975.2         
13:15 16.06 СВ  16 км    10/10 180 м  +16.7  +16.7  100  +16  +16      975.2         
13:35 16.06 СВ  16 км    10/10 180 м  +16.8  +16.8  100  +16  +16      975.2         
13:36 16.06 СВ  16 км    10/10 180 м  +16.9  +16.9  100  +16  +16      975.2         
13:59 16.06 СВ  16 км    10/10 180 м  +17.0  +17.0  100  +16  +16      975.2         
14:17 16.06 СВ  16 км    10/10 180 м  +17.0  +17.0  100  +16  +16      975.2         
14:35 16.06 В  16 км    10/10 180 м  +17.0  +17.0  100  +17  +17      975.5         
14:36 16.06 В  16 км    10/10 180 м  +17.0  +17.0  100  +17  +17      975.5         
14:55 16.06 В  16 км    10/10 180 м  +17.0  +17.0  100  +17  +17      975.9         
15:15 16.06 СВ  16 км    10/10 180 м  +17.1  +17.1  100  +17  +17      976.2         
15:38 16.06 В  16 км    10/10 180 м  +17.5  +17.5  100  +17  +17      976.2         
15:56 16.06 С  16 км    10/10 180 м  +17.8  +17.8  100  +18  +18      976.2         
16:15 16.06 СВ  16 км    10/10 180 м  +17.3  +17.3  100  +17  +17      976.5         

 

Местоположение метеостанции Branch County Memorial Airport: широта 41.9333 долгота -85.0525 высота над уровнем моря 292 м.

В архиве по умолчанию представлена погода в Колдуотере за последние 1-2 суток. Обновление информации о фактической погоде в базе происходит ежечасно! Архивные данные за месяц целиком и за предыдущие месяцы Вы можете получить, выбрав интересующий диапазон дат из раскрывающегося списка и нажав кнопку "Ввод!".

Внимание! Архив погоды МЕТАР в базе сайта хранится не более 60 дней. Нет смысла пытаться выбрать более раннюю дату.

Внимание! Время в таблицах - всемирное. Для получения местного времени необходимо прибавить поправку, которая в Колдуотере равна -5 ч.

Ветер - указаны скорость ветра в м/с и направление, откуда дует ветер: С - северный, СВ - северо-восточный, В - восточный, ЮВ - юго-восточный, Ю - южный, ЮЗ - юго-западный, З - западный, СЗ - северо-западный.
Видимость - горизонтальная дальность видимости в метрах или километрах. При видимости от 1 до 10 км при отсутствии осадков обычно наблюдается дымка, при ухудшении видимости до 1 км и менее - туман. В сухую погоду видимость может ухудшаться дымом, пылью или мглою.
Атмосферные явления - указаны явления, наблюдавшиеся в указанный момент времени.
Облачность - указаны через наклонную черту верхняя и нижняя облачность в баллах и высота нижней границы облаков в метрах. Внимание: облачность, как и прочие метеорологические величины в США измеряются автоматическими метеостанциями. Указанные значения в баллах носят условный характер и показывают процент времени, в течение которого, в среднем, лазерный луч высотомера отражался от облаков обратно.
T - Температура воздуха - температура, измеренная на высоте 2 м над землей.
Td - Температура точки росы - температура, при понижении до которой содержащийся в воздухе водяной пар достигнет насыщения.
f - Относительная влажность воздуха - влажноcть воздуха, измеренная на высоте 2 м над землей.
Te - Эффективная температура - температура, которую ощущает одетый по сезону человек в тени. Характеристика душности погоды. При расчете учитывается влияние влажности воздуха и скорости ветра на теплоощущения человека.
Tes - Эффективная температура на солнце - температура, которую ощущает человек, с поправкой на солнечный нагрев. Характеристика знойности погоды. Зависит от высоты солнца над горизонтом, облачности и скорости ветра. Ночью, в пасмурную погоду, а также при ветре 12 м/с и более поправка равна нулю.
P - Атмосферное давление - приведенное к уровню моря атмосферное давление.
Po - Атмосферное давление - измеренное на уровне метеостанции атмосферное давление.
Tmin - Минимальная температура - минимум температуры воздуха на высоте 2 м над землей.
Tmax - Максимальная температура - максимум температуры воздуха на высоте 2 м над землей.
R - Количество осадков - Количество выпавших осадков за 3 или 6 часов, мм.
SD - Снежный покров - Высота снежного покрова, см.